FW1458 Weather Reports


Display with metric or nautical units.
time (UTC)temp
F
wind
direction
speed
MPH
gust
MPH
rain 1hr
in
rain 24hr
in
rain mn
in
humidity
%
barometer
mb
20260904094531 80 173 1.0 5.0 0.00 0.00 0.00 75 1012.1
20260904093015 80 172 1.0 5.0 0.00 0.00 0.00 74 1012.2
20260904091513 80 196 1.0 4.0 0.00 0.00 0.00 74 1011.9
20260904090008 80 184 1.0 4.0 0.00 0.00 0.00 73 1011.7
20260904084508 81 193 1.0 4.0 0.00 0.00 0.00 72 1011.7
20260904083006 81 210 1.0 5.0 0.00 0.00 0.00 72 1011.7
20260904081506 81 188 2.0 5.0 0.00 0.00 0.00 71 1011.8
20260904080003 81 171 1.0 5.0 0.00 0.00 0.00 70 1011.4
20260904074502 81 168 1.0 4.0 0.00 0.00 0.00 70 1011.5
20260904073005 81 186 1.0 4.0 0.00 0.00 0.00 70 1011.7
20260904071501 82 171 1.0 4.0 0.00 0.00 0.00 70 1011.5
20260904070059 82 169 0.0 3.0 0.00 0.00 0.00 69 1011.5
20260904064614 83 184 1.0 4.0 0.00 0.00 0.00 68 1011.6
20260904063108 84 187 0.0 3.0 0.00 0.00 0.00 67 1011.7
20260904061552 84 220 3.0 7.0 0.00 0.00 0.00 66 1011.5
20260904060108 84 228 3.0 8.0 0.00 0.00 0.00 66 1011.5
20260904054553 84 211 2.0 6.0 0.00 0.00 0.00 66 1011.4
20260904053048 85 230 1.0 5.0 0.00 0.00 0.00 65 1011.4
20260904051544 85 200 1.0 3.0 0.00 0.00 0.00 64 1011.3
20260904050050 86 206 1.0 4.0 0.00 0.00 0.00 63 1011.3
20260904044545 86 223 2.0 8.0 0.00 0.00 0.00 63 1011.2
20260904043040 86 149 3.0 8.0 0.00 0.00 0.00 62 1011.3
20260904041543 86 236 1.0 4.0 0.00 0.00 0.00 62 1011.4
20260904040043 86 228 1.0 7.0 0.00 0.00 0.00 62 1011.3
20260904034544 86 225 1.0 5.0 0.00 0.00 0.00 63 1011.3
20260904033039 86 178 1.0 4.0 0.00 0.00 0.00 62 1011.2
20260904031539 87 199 1.0 2.0 0.00 0.00 0.00 61 1011.2
20260904030039 88 175 1.0 2.0 0.00 0.00 0.00 60 1011.1
20260904024538 88 176 1.0 3.0 0.00 0.00 0.00 58 1010.8
20260904023041 89 173 2.0 5.0 0.00 0.00 0.00 57 1010.6
20260904021548 89 166 2.0 4.0 0.00 0.00 0.00 57 1010.5
20260904020036 89 184 2.0 6.0 0.00 0.00 0.00 56 1010.4
20260904014536 90 191 0.0 3.0 0.00 0.00 0.00 56 1010.3
20260904013050 90 201 1.0 5.0 0.00 0.00 0.00 55 1010.0
20260904011535 91 174 1.0 4.0 0.00 0.00 0.00 54 1009.7
20260904010035 92 178 2.0 5.0 0.00 0.00 0.00 53 1009.6
20260904004535 93 191 2.0 7.0 0.00 0.00 0.00 52 1009.5
20260904003033 93 130 5.0 9.0 0.00 0.00 0.00 51 1009.5
20260904001551 94 171 5.0 10.0 0.00 0.00 0.00 51 1009.6
20260904000032 94 172 5.0 11.0 0.00 0.00 0.00 50 1009.5
20260903234533 95 157 8.0 14.0 0.00 0.00 0.00 49 1009.6
20260903233041 96 234 5.0 13.0 0.00 0.00 0.00 49 1009.4
20260903231535 96 139 5.0 10.0 0.00 0.00 0.00 48 1009.4
20260903230033 96 211 3.0 11.0 0.00 0.00 0.00 49 1009.7
20260903224531 96 168 4.0 18.0 0.00 0.00 0.00 50 1009.6
20260903223029 97 137 7.0 14.0 0.00 0.00 0.00 49 1009.6
20260903221529 97 171 6.0 15.0 0.00 0.00 0.00 49 1009.4
20260903220027 97 221 8.0 17.0 0.00 0.00 0.00 48 1009.6
20260903214534 97 147 6.0 15.0 0.00 0.00 0.00 48 1009.4
20260903213036 97 182 6.0 22.0 0.00 0.00 0.00 48 1009.7
20260903211523 98 184 7.0 14.0 0.00 0.00 0.00 47 1009.7
20260903210020 98 172 5.0 15.0 0.00 0.00 0.00 47 1009.9
20260903204519 98 165 6.0 12.0 0.00 0.00 0.00 47 1010.1
20260903203017 98 167 8.0 17.0 0.00 0.00 0.00 46 1010.3
20260903201516 98 169 8.0 16.0 0.00 0.00 0.00 46 1010.5
20260903200015 98 192 6.0 16.0 0.00 0.00 0.00 46 1010.3
20260903194513 98 207 5.0 12.0 0.00 0.00 0.00 49 1010.5
20260903193016 98 230 8.0 15.0 0.00 0.00 0.00 47 1010.7
20260903191507 98 259 7.0 16.0 0.00 0.00 0.00 48 1010.9
20260903190002 97 171 4.0 13.0 0.00 0.00 0.00 49 1011.1
20260903184607 97 215 6.0 15.0 0.00 0.00 0.00 49 1011.4
20260903183055 97 158 8.0 13.0 0.00 0.00 0.00 48 1011.5
20260903181555 96 182 6.0 16.0 0.00 0.00 0.00 50 1011.7
20260903180046 96 194 6.0 17.0 0.00 0.00 0.00 50 1011.9
20260903174544 95 126 6.0 12.0 0.00 0.00 0.00 51 1012.0
20260903173043 95 180 5.0 15.0 0.00 0.00 0.00 52 1012.1
20260903171546 95 173 5.0 11.0 0.00 0.00 0.00 52 1012.2
20260903170043 94 205 5.0 11.0 0.00 0.00 0.00 54 1012.3
20260903164535 93 183 6.0 11.0 0.00 0.00 0.00 54 1012.7
20260903163030 92 186 5.0 10.0 0.00 0.00 0.00 57 1012.9
20260903161528 90 214 6.0 14.0 0.00 0.00 0.00 59 1013.0
20260903160024 90 179 4.0 12.0 0.00 0.00 0.00 61 1013.1
20260903154521 89 173 5.0 13.0 0.00 0.00 0.00 63 1013.2
20260903153020 88 157 5.0 12.0 0.00 0.00 0.00 64 1013.2
20260903151520 87 150 4.0 11.0 0.00 0.00 0.00 65 1013.1
20260903150019 86 186 5.0 12.0 0.00 0.00 0.00 67 1013.2
20260903144520 86 194 5.0 14.0 0.00 0.00 0.00 67 1013.4
20260903143015 85 146 4.0 10.0 0.00 0.00 0.00 68 1013.4
20260903141515 84 235 6.0 12.0 0.00 0.00 0.00 69 1013.4
20260903140016 83 154 6.0 15.0 0.00 0.00 0.00 72 1013.5
20260903134512 82 151 4.0 8.0 0.00 0.00 0.00 74 1013.5
20260903133014 81 165 4.0 9.0 0.00 0.00 0.00 76 1013.6
20260903131511 79 167 4.0 8.0 0.00 0.00 0.00 78 1013.5
20260903130011 78 153 3.0 6.0 0.00 0.00 0.00 80 1013.5
20260903124508 77 142 2.0 5.0 0.00 0.00 0.00 80 1013.5
20260903123006 77 159 1.0 5.0 0.00 0.00 0.00 80 1013.3
20260903121514 77 162 0.0 2.0 0.00 0.00 0.00 80 1013.3
20260903120003 77 171 1.0 2.0 0.00 0.00 0.00 80 1013.2
20260903114607 77 175 1.0 4.0 0.00 0.00 0.00 79 1013.1
20260903113102 77 160 1.0 3.0 0.00 0.00 0.00 79 1012.8
20260903111558 78 183 2.0 5.0 0.00 0.00 0.00 78 1012.7
20260903110103 78 157 1.0 3.0 0.00 0.00 0.00 78 1012.8
20260903104555 78 148 1.0 3.0 0.00 0.00 0.00 77 1012.8
20260903103054 79 179 2.0 5.0 0.00 0.00 0.00 76 1012.7
20260903101552 79 182 1.0 3.0 0.00 0.00 0.00 75 1012.5
20260903100049 80 171 1.0 3.0 0.00 0.00 0.00 74 1012.5